When you browse on this site, cookies collect data to enhance your experience and personalize the content and advertising you see.
Visit our Privacy Policy to learn more. By continuing to use the site, you agree to this use of cookies and data.
  • In Hungary
  • List of Countries
  • For 7 days
  • Water Temperature
  • Satellite Maps
  • Weather Map
  • News
  • Weather Widgets
  • user-avatar
    Login

    Hourly Weather Novoarhangelsk

    Today, 19 January, Saturday

    Time Temperature Precipitation Wind Pressure Humidity
    00:00 -1°C° 0.1 mm 3 mps 745 mmHg 93%
    01:00 -1°C° 0.1 mm 3 mps 745 mmHg 92%
    02:00 -1°C° 0.1 mm 4 mps 746 mmHg 92%
    03:00 -2°C° 0.1 mm 4 mps 746 mmHg 92%
    04:00 -3°C° 0.1 mm 4 mps 747 mmHg 92%
    05:00 -3°C° 0.1 mm 4 mps 747 mmHg 92%
    06:00 -5°C° 0 mm 4 mps 748 mmHg 92%
    07:00 -8°C° 0 mm 4 mps 748 mmHg 92%
    08:00 -8°C° 0 mm 3 mps 749 mmHg 92%
    09:00 -8°C° 0 mm 3 mps 750 mmHg 91%
    10:00 -7°C° 0 mm 3 mps 750 mmHg 90%
    11:00 -7°C° 0 mm 3 mps 751 mmHg 89%
    12:00 -7°C° 0 mm 3 mps 751 mmHg 90%
    13:00 -5°C° 0 mm 2 mps 751 mmHg 90%
    14:00 -5°C° 0 mm 2 mps 751 mmHg 91%
    15:00 -6°C° 0 mm 2 mps 752 mmHg 90%
    16:00 -8°C° 0 mm 2 mps 752 mmHg 90%
    17:00 -9°C° 0 mm 2 mps 752 mmHg 90%
    18:00 -10°C° 0 mm 2 mps 752 mmHg 90%
    19:00 -9°C° 0 mm 1 mps 752 mmHg 89%
    20:00 -10°C° 0 mm 1 mps 753 mmHg 89%
    21:00 -10°C° 0 mm 1 mps 753 mmHg 88%
    22:00 -11°C° 0 mm 1 mps 753 mmHg 88%
    23:00 -11°C° 0 mm 1 mps 753 mmHg 88%

    Tomorrow, 20 January, Sunday

    Time Temperature Precipitation Wind Pressure Humidity
    00:00 -12°C° 0 mm 1 mps 753 mmHg 87%
    01:00 -12°C° 0 mm 0 mps 753 mmHg 87%
    02:00 -12°C° 0 mm 0 mps 753 mmHg 87%
    03:00 -12°C° 0 mm 0 mps 753 mmHg 87%
    04:00 -12°C° 0 mm 1 mps 752 mmHg 86%
    05:00 -12°C° 0 mm 1 mps 752 mmHg 86%
    06:00 -11°C° 0 mm 1 mps 752 mmHg 86%
    07:00 -11°C° 0 mm 1 mps 752 mmHg 86%
    08:00 -12°C° 0 mm 2 mps 752 mmHg 86%
    09:00 -10°C° 0 mm 2 mps 752 mmHg 86%
    10:00 -8°C° 0 mm 2 mps 752 mmHg 85%
    11:00 -8°C° 0 mm 3 mps 752 mmHg 85%
    12:00 -6°C° 0 mm 2 mps 751 mmHg 86%
    13:00 -6°C° 0 mm 2 mps 751 mmHg 87%
    14:00 -5°C° 0 mm 2 mps 750 mmHg 88%
    15:00 -5°C° 0 mm 2 mps 750 mmHg 89%
    16:00 -6°C° 0 mm 2 mps 749 mmHg 91%
    17:00 -6°C° 0 mm 2 mps 749 mmHg 92%
    18:00 -6°C° 0 mm 2 mps 749 mmHg 92%
    19:00 -6°C° 0 mm 2 mps 748 mmHg 93%
    20:00 -6°C° 0 mm 2 mps 748 mmHg 93%
    21:00 -5°C° 0.1 mm 2 mps 748 mmHg 93%
    22:00 -3°C° 0.1 mm 1 mps 748 mmHg 94%
    23:00 -3°C° 0.1 mm 1 mps 748 mmHg 94%

    Day after tomorrow, 21 January, Monday

    Time Temperature Precipitation Wind Pressure Humidity
    00:00 -3°C° 0.4 mm 1 mps 748 mmHg 95%
    01:00 -3°C° 0.4 mm 1 mps 748 mmHg 96%
    02:00 -3°C° 0.4 mm 1 mps 748 mmHg 97%
    03:00 -5°C° 0.3 mm 2 mps 747 mmHg 96%
    04:00 -5°C° 0.3 mm 2 mps 747 mmHg 96%
    05:00 -5°C° 0.3 mm 2 mps 747 mmHg 96%
    06:00 -6°C° 0.2 mm 3 mps 747 mmHg 96%
    07:00 -6°C° 0.2 mm 3 mps 747 mmHg 95%
    08:00 -7°C° 0.2 mm 4 mps 748 mmHg 95%
    09:00 -7°C° 0.1 mm 4 mps 748 mmHg 94%
    10:00 -7°C° 0.1 mm 4 mps 748 mmHg 94%
    11:00 -7°C° 0.1 mm 5 mps 749 mmHg 93%
    12:00 -7°C° 0 mm 5 mps 749 mmHg 93%
    13:00 -7°C° 0 mm 5 mps 749 mmHg 93%
    14:00 -7°C° 0 mm 5 mps 749 mmHg 93%
    15:00 -8°C° 0 mm 4 mps 749 mmHg 93%
    16:00 -8°C° 0 mm 4 mps 750 mmHg 94%
    17:00 -9°C° 0 mm 4 mps 750 mmHg 94%
    18:00 -10°C° 0 mm 4 mps 750 mmHg 94%
    19:00 -10°C° 0 mm 4 mps 751 mmHg 94%
    20:00 -10°C° 0 mm 3 mps 751 mmHg 94%
    21:00 -12°C° 0 mm 3 mps 751 mmHg 95%
    22:00 -13°C° 0 mm 3 mps 751 mmHg 95%
    23:00 -13°C° 0 mm 2 mps 751 mmHg 96%

    22 January, Tuesday

    Time Temperature Precipitation Wind Pressure Humidity
    00:00 -14°C° 0 mm 2 mps 751 mmHg 95%
    01:00 -15°C° 0 mm 2 mps 751 mmHg 95%
    02:00 -15°C° 0 mm 2 mps 751 mmHg 95%
    03:00 -16°C° 0 mm 2 mps 751 mmHg 94%
    04:00 -16°C° 0 mm 2 mps 751 mmHg 94%
    05:00 -15°C° 0 mm 1 mps 751 mmHg 93%
    06:00 -15°C° 0 mm 1 mps 751 mmHg 92%
    07:00 -17°C° 0 mm 2 mps 750 mmHg 91%
    08:00 -17°C° 0 mm 2 mps 750 mmHg 89%
    09:00 -15°C° 0 mm 2 mps 750 mmHg 88%
    10:00 -14°C° 0 mm 2 mps 750 mmHg 86%
    11:00 -12°C° 0 mm 2 mps 750 mmHg 84%
    12:00 -10°C° 0 mm 2 mps 750 mmHg 85%
    13:00 -10°C° 0 mm 2 mps 749 mmHg 86%
    14:00 -9°C° 0 mm 2 mps 748 mmHg 87%
    15:00 -10°C° 0 mm 2 mps 748 mmHg 88%
    16:00 -12°C° 0 mm 2 mps 748 mmHg 89%
    17:00 -12°C° 0 mm 2 mps 747 mmHg 91%
    18:00 -12°C° 0 mm 2 mps 747 mmHg 92%
    19:00 -12°C° 0 mm 2 mps 747 mmHg 93%
    20:00 -12°C° 0 mm 2 mps 746 mmHg 94%
    21:00 -12°C° 0 mm 2 mps 746 mmHg 95%
    22:00 -10°C° 0 mm 2 mps 746 mmHg 96%
    23:00 -9°C° 0 mm 2 mps 745 mmHg 97%

    23 January, Wednesday

    Time Temperature Precipitation Wind Pressure Humidity
    00:00 -9°C° 0.1 mm 2 mps 745 mmHg 97%
    01:00 -8°C° 0.1 mm 2 mps 745 mmHg 97%
    02:00 -7°C° 0.1 mm 1 mps 744 mmHg 97%
    03:00 -7°C° 0.3 mm 2 mps 744 mmHg 97%
    04:00 -7°C° 0.3 mm 2 mps 744 mmHg 97%
    05:00 -7°C° 0.3 mm 2 mps 743 mmHg 97%
    06:00 -6°C° 0.3 mm 2 mps 743 mmHg 97%
    07:00 -7°C° 0.3 mm 3 mps 743 mmHg 97%
    08:00 -7°C° 0.3 mm 3 mps 743 mmHg 97%
    09:00 -6°C° 0.3 mm 3 mps 743 mmHg 96%
    10:00 -7°C° 0.3 mm 4 mps 743 mmHg 96%
    11:00 -5°C° 0.3 mm 4 mps 743 mmHg 96%
    12:00 -4°C° 0.1 mm 4 mps 743 mmHg 95%
    13:00 -4°C° 0.1 mm 4 mps 743 mmHg 95%
    14:00 -4°C° 0.1 mm 5 mps 743 mmHg 95%
    15:00 -5°C° 0 mm 5 mps 743 mmHg 95%
    16:00 -5°C° 0 mm 5 mps 742 mmHg 95%
    17:00 -5°C° 0 mm 6 mps 742 mmHg 95%
    18:00 -5°C° 0 mm 6 mps 742 mmHg 95%
    19:00 -6°C° 0 mm 6 mps 742 mmHg 95%
    20:00 -7°C° 0 mm 7 mps 742 mmHg 95%
    21:00 -7°C° 0.2 mm 7 mps 742 mmHg 95%
    22:00 -7°C° 0.2 mm 7 mps 742 mmHg 94%
    23:00 -7°C° 0.2 mm 7 mps 742 mmHg 94%

    24 January, Thursday

    Time Temperature Precipitation Wind Pressure Humidity
    00:00 -7°C° 0.3 mm 7 mps 742 mmHg 94%
    01:00 -7°C° 0.3 mm 7 mps 741 mmHg 93%
    02:00 -7°C° 0.3 mm 7 mps 741 mmHg 93%
    03:00 -7°C° 0.7 mm 7 mps 741 mmHg 93%
    04:00 -6°C° 0.7 mm 7 mps 740 mmHg 94%
    05:00 -6°C° 0.7 mm 7 mps 740 mmHg 94%
    06:00 -6°C° 0.2 mm 7 mps 740 mmHg 93%
    07:00 -4°C° 0.2 mm 7 mps 740 mmHg 93%
    08:00 -4°C° 0.2 mm 7 mps 740 mmHg 93%
    09:00 -3°C° 0.1 mm 7 mps 740 mmHg 94%
    10:00 -3°C° 0.1 mm 7 mps 740 mmHg 94%
    11:00 -3°C° 0.1 mm 6 mps 740 mmHg 95%
    12:00 -2°C° 0.1 mm 6 mps 740 mmHg 97%
    13:00 -1°C° 0.1 mm 5 mps 740 mmHg 98%
    14:00 -1°C° 0.1 mm 5 mps 739 mmHg 99%
    15:00 -1°C° 0.1 mm 5 mps 740 mmHg 99%
    16:00 -1°C° 0.1 mm 5 mps 740 mmHg 99%
    17:00 -1°C° 0.1 mm 5 mps 740 mmHg 99%
    18:00 -1°C° 0 mm 5 mps 740 mmHg 99%
    19:00 0°C° 0 mm 5 mps 740 mmHg 99%
    20:00 0°C° 0 mm 5 mps 740 mmHg 99%
    21:00 0°C° 0.3 mm 5 mps 740 mmHg 99%
    22:00 0°C° 0.3 mm 5 mps 740 mmHg 99%
    23:00 0°C° 0.3 mm 5 mps 740 mmHg 100%
    Show more